Regional Weather Roundup
Issued by NWS

Home | Current Version | Previous Version | Text Only | Print | Product List | Glossary On
Versions: 1 2 3 4 5 6 7 8 9 10 11 12 13 14 15 16 17 18 19 20 21 22 23 24 25 26 27 28 29 30 31 32 33 34 35 36 37 38 39 40 41 42 43 44 45 46 47 48 49
000
ASUS45 KSLC 261210
RWRUT

UTAH REGIONAL WEATHER ROUNDUP
NATIONAL WEATHER SERVICE SALT LAKE CITY UT
600 AM MDT SAT JUL 26 2014

UTZ001>011-023>025-261300-

NORTHERN UTAH

CITY           SKY/WX    TMP DP  RH WIND       PRES   REMARKS
HILL AFB       PTCLDY    68  37  32 SE15      30.11R
LOGAN          CLEAR     58  42  55 CALM      30.14R
OGDEN          PTCLDY    66  38  35 W6        30.08R
PROVO AIRPORT    N/A     66  48  52 SE3       30.11R VSB 1/2
SALT LAKE CITY MOCLDY    67  47  48 CALM      30.07R
VERNAL         CLEAR     66  44  45 CALM      30.13R
WENDOVER       CLEAR     70  30  23 CALM      30.10R
HEBER CITY     PTCLDY    55  46  71 CALM      30.18R
WEST JORDAN    CLEAR     70  52  52 SW3       30.10R

$$

UTZ012>022-026-027-261300-

SOUTHERN UTAH

CITY           SKY/WX    TMP DP  RH WIND       PRES   REMARKS
BRYCE CANYON   PTCLDY    46  42  86 CALM      30.36R
CEDAR CITY     MOCLDY    69  49  48 S7        30.19R
MILFORD        MOCLDY    71  48  43 SW8       30.14R
MOAB/CYNLANDS  PTCLDY    73  47  39 W3        30.08R
PRICE          MOCLDY    66  46  48 N7        30.18S
ST GEORGE      MOSUNNY   82  50  32 SW3       30.01R
KANAB            N/A     66  50  55 N5        30.20R

$$

REGIONAL REPORTS     COLORADO/ARIZONA

CITY           SKY/WX    TMP DP  RH WIND       PRES   REMARKS
CRAIG, CO      MOCLDY    57  50  77 E3        30.23R
GRAND JUNCTION PTCLDY    66  52  60 SE6       30.13R
RIFLE          MOCLDY    65  49  56 NE3       30.20R
MONTROSE       CLEAR     63  50  62 SE7       30.22R
CORTEZ         CLEAR     58  46  64 NE7       30.22S
PAGE, AZ       MOCLDY    79  51  37 NW5       30.10R
GRAND CANYON   CLOUDY    64  49  57 CALM      30.29S
KINGMAN        MOCLDY    72  61  68 SE8       30.07R
FLAGSTAFF      CLOUDY    59  46  62 CALM      30.34R

$$

REGIONAL REPORTS    NEVADA/IDAHO/WYOMING

CITY           SKY/WX    TMP DP  RH WIND       PRES   REMARKS
LAS VEGAS, NV  MOCLDY    88  58  36 S13       29.88R
ELY            CLEAR     53  32  44 CALM      30.23R
ELKO           PTCLDY    51  32  48 CALM      30.18R
POCATELLO, ID  CLEAR     55  28  35 CALM      30.17R
BURLEY         CLEAR     51  36  56 CALM      30.14R
EVANSTON, WY   PTCLDY    60  31  33 CALM      30.29R
ROCK SPRINGS   PTCLDY    59  24  26 W3        30.25R

$$


USA.gov is the U.S. government's official web portal to all federal, state and local government web resources and services.